Flag for U.S.A. Weather past 2 weeks in Oklahoma City, Oklahoma, U.S.A.

Now
82 °F

Scattered clouds.


Feels Like: 80 °F
Forecast: 55 / 78 °F
Wind: 6 mph from North

Location: Will Rogers World Airport

Current Time: Sep 22, 2014 at 5:38:42 PM

Latest Report: Sep 22, 2014 at 4:52 PM


Visibility: 10 mi

Pressure: 30.14 "Hg

Humidity: 27%

Dew point: 45 °F

Location of Oklahoma CityLocation

Historic Weather in Oklahoma City — Graph

°F

Oklahoma City temperature yesterday

Maximum temperature yesterday: 88 °F (at 12:52 PM)
Minimum temperature yesterday: 67 °F (at 6:52 AM)
Average temperature yesterday: 75 °F

Past Weeks' High & Low Weather Summary

 TemperatureHumidityPressure
High95 °F (Sep 9, 4:52 PM)94% (Sep 8, 6:02 AM)30.36 "Hg (Sep 8, 6:02 AM)
Low50 °F (Sep 13, 3:52 AM)13% (Sep 9, 9:52 PM)29.69 "Hg (Sep 10, 2:52 AM)
Average73 °F70%30.02 "Hg
* Reported Sep 7 3:52 PM — Sep 22 3:52 PM, Oklahoma City, Weather by CustomWeather, © 2014

Note: Actual official high and low records may vary slightly from our data, if they occured in-between our weather recording intervals... More about our weather records

Advertising

Oklahoma City weather history for previous 24 hours

 ConditionsComfort  
Time TempWeatherWind HumidityBarometerVisibility
3:52 PM
Sep 22
79 °FScattered clouds.No wind31%30.17 "Hg10 mi
2:52 PM81 °FScattered clouds.7 mph28%30.19 "Hg10 mi
1:52 PM79 °FScattered clouds.6 mph31%30.21 "Hg10 mi
12:52 PM78 °FScattered clouds.8 mph31%30.24 "Hg10 mi
11:52 AM75 °FScattered clouds.10 mph37%30.26 "Hg10 mi
10:52 AM73 °FScattered clouds.12 mph43%30.27 "Hg10 mi
9:52 AM70 °FPassing clouds.10 mph46%30.26 "Hg10 mi
8:52 AM66 °FPassing clouds.9 mph54%30.25 "Hg10 mi
7:52 AM59 °FClear.7 mph69%30.26 "Hg10 mi
6:52 AM59 °FClear.8 mph69%30.24 "Hg10 mi
5:52 AM60 °FClear.8 mph67%30.22 "Hg10 mi
4:52 AM61 °FClear.8 mph65%30.20 "Hg10 mi
3:52 AM62 °FClear.7 mph62%30.19 "Hg10 mi
2:52 AM65 °FClear.7 mph59%30.18 "Hg10 mi
1:52 AM67 °FClear.9 mph55%30.18 "Hg10 mi
12:52 AM68 °FPassing clouds.8 mph57%30.17 "Hg10 mi
11:52 PM
Sep 21
69 °FPassing clouds.9 mph57%30.17 "Hg10 mi
10:52 PM69 °FPassing clouds.6 mph61%30.16 "Hg10 mi
9:52 PM73 °FPassing clouds.9 mph55%30.15 "Hg10 mi
8:52 PM74 °FPassing clouds.7 mph56%30.13 "Hg10 mi
7:52 PM74 °FPartly sunny.8 mph53%30.12 "Hg10 mi
6:52 PM76 °FLight rain. Partly sunny.12 mph47%30.09 "Hg10 mi
5:52 PM77 °FPartly sunny.13 mph39%30.09 "Hg10 mi
Weather by CustomWeather, © 2014

See weather overviewHow to use our weather pages